Location: Caltech
(34.1382°N, 118.1253°W)
Time: 03:41:23
(UTC-07:00)

Iridium 3 - Visible Passes

Search period start: 29 July 2014 00:00
Search period end: 08 August 2014 00:00
Orbit: 776 x 779 km, 86.4° (Epoch: 28 July)

Date Brightness Start Highest point End Pass type
(mag) Time Alt. Az. Time Alt. Az. Time Alt. Az.
29 Jul 6.1 02:48:57 55° NNE 02:48:57 55° NNE 02:53:08 10° N visible
29 Jul 7.7 04:29:26 10° WNW 04:29:26 10° WNW 04:30:02 10° WNW visible
30 Jul 7.0 02:15:44 31° ENE 02:15:44 31° ENE 02:19:16 10° NNE visible
30 Jul 7.1 03:56:13 20° WNW 03:56:13 20° WNW 03:59:12 10° NNW visible
31 Jul 7.8 01:42:30 17° ENE 01:42:30 17° ENE 01:44:47 10° NE visible
31 Jul 6.6 03:22:59 34° NW 03:22:59 34° NW 03:26:30 10° NNW visible
01 Aug 6.4 02:49:44 44° N 02:49:44 44° N 02:53:15 10° N visible
02 Aug 7.0 02:16:29 35° NNE 02:16:29 35° NNE 02:19:37 10° NNE visible
02 Aug 7.6 03:56:58 13° WNW 03:56:58 13° WNW 03:58:15 10° NW visible
03 Aug 7.6 01:43:13 21° NE 01:43:13 21° NE 01:45:33 10° NNE visible
03 Aug 7.2 03:23:42 22° NW 03:23:42 22° NW 03:26:10 10° NNW visible
04 Aug 8.2 01:09:57 12° NE 01:09:57 12° NE 01:10:37 10° NE visible
04 Aug 7.0 02:50:25 30° NNW 02:50:25 30° NNW 02:53:13 10° N visible
05 Aug 7.1 02:17:08 31° N 02:17:08 31° N 02:19:49 10° N visible
06 Aug 7.6 01:43:51 23° NNE 01:43:51 23° NNE 01:46:01 10° NNE visible
06 Aug 7.7 03:24:20 14° NW 03:24:20 14° NW 03:25:34 10° NW visible
07 Aug 8.1 01:10:33 15° NE 01:10:33 15° NE 01:11:42 10° NE visible
07 Aug 7.4 02:51:02 21° NNW 02:51:02 21° NNW 02:53:01 10° NNW visible
